This is the latest recevied weather packets stored in our database for station/object N0SWP-3. If no packets are shown the sender has not sent any weather packets the latest 10 day(s).
| Time | Temp. | Humidity | Pressure | Rain* | Wind** | Luminosity | Snow |
|---|---|---|---|---|---|---|---|
| 1778073123 | 8.33° C | 92% | 1018.3 hPa | 0 mm | - | - | - |
| 1778072583 | 7.78° C | 93% | 1017.8 hPa | 0 mm | - | - | - |
| 1778071143 | 7.22° C | 94% | 1017.8 hPa | 0 mm | - | - | - |
| 1778070243 | 7.22° C | 94% | 1017.5 hPa | 0 mm | - | - | - |
| 1778069883 | 7.22° C | 94% | 1017.6 hPa | 0 mm | - | - | - |
| 1778068803 | 7.22° C | 94% | 1017.3 hPa | 0 mm | - | - | - |
| 1778068083 | 6.67° C | 93% | 1017.4 hPa | 0 mm | - | - | - |
| 1778067364 | 6.67° C | 93% | 1017.3 hPa | 0 mm | - | - | - |
| 1778066823 | 6.67° C | 93% | 1017.3 hPa | 0 mm | - | - | - |
| 1778066283 | 7.22° C | 93% | 1016.9 hPa | 0 mm | - | - | - |
| 1778066103 | 6.67° C | 93% | 1017 hPa | 0 mm | - | - | - |
| 1778065923 | 6.67° C | 93% | 1017.2 hPa | 0 mm | - | - | - |
| 1778065743 | 6.67° C | 93% | 1017.1 hPa | 0 mm | - | - | - |
| 1778062863 | 7.22° C | 92% | 1017.3 hPa | 0 mm | - | - | - |
| 1778060703 | 7.22° C | 90% | 1016.1 hPa | 0 mm | - | - | - |
| 1778060344 | 7.22° C | 90% | 1015.8 hPa | 0 mm | - | - | - |
| 1778059758 | 7.22° C | 88% | 1015.2 hPa | 0.25 mm | - | - | - |
| 1778058723 | 7.22° C | 89% | 1014.9 hPa | 0.25 mm | - | - | - |
| 1778057283 | 7.22° C | 86% | 1016 hPa | 0.51 mm | - | - | - |
| 1778053863 | 7.22° C | 91% | 1016.1 hPa | 0.25 mm | - | - | - |
| 1778053323 | 7.22° C | 91% | 1015.8 hPa | 0.25 mm | - | - | - |
| 1778052963 | 7.22° C | 91% | 1015.4 hPa | 0.25 mm | - | - | - |
| 1778051163 | 7.22° C | 87% | 1015.8 hPa | 0.25 mm | - | - | - |
| 1778050983 | 7.78° C | 86% | 1015.7 hPa | 0.25 mm | - | - | - |
| 1778050803 | 7.78° C | 88% | 1015.3 hPa | 0.25 mm | - | - | - |
* Rain latest hour (hover to see other rain measurements)
** Current wind speed in m/s (hover to see current wind gust speed)